Tracking 19212 objects as of 16-Jul-2018
HD Live streaming from Space Station
objects crossing your sky now

FENGYUN 1C DEB

Track FENGYUN 1C DEB now!
10-day predictions


NORAD ID: 31448
Int'l Code: 1999-025BUL
Perigee: 784.3 km
Apogee: 878.8 km
Inclination: 98.7 °
Period: 101.4 minutes
Semi major axis: 7202 km
RCS: 0.0109 m2 (small)
Launch date: May 10, 1999
Source: People's Republic of China (PRC)
Launch site: Taiyaun Space Center, China (TSC)

Note: This is SATELLITE DEBRIS
aabbcc
Your satellite tracking list
Your tracking list is empty




NASA's NSSDC Master Catalog

Two Line Element Set (TLE):
1 31448U 99025BUL 18196.31093079 +.00000237 +00000-0 +12822-3 0  9992
2 31448 098.7330 234.7278 0065642 138.3188 222.3018 14.20278054258152
Source of the keplerian elements: AFSPC